EW8978 Weather Reports


time (UTC)temp
C
wind
direction
speed
KPH
gust
KPH
rain 1hr
cm
rain 24hr
cm
rain mn
cm
humidity
%
barometer
mb
20260510070043 -17 0.0 0.0 0.00 0.00 0.00 1009.7
20260510064526 -17 0.0 0.0 0.00 0.00 0.00 1009.7
20260510063052 -17 0.0 0.0 0.00 0.00 0.00 1009.7
20260510061548 -17 0.0 0.0 0.00 0.00 0.00 1009.6
20260510060032 -17 0.0 0.0 0.00 0.00 0.00 1009.6
20260510054516 -17 0.0 0.0 0.00 0.00 0.00 1009.6
20260510053036 -17 0.0 0.0 0.00 0.00 0.00 1009.5
20260510051530 -17 0.0 0.0 0.00 0.00 0.00 1009.7
20260510050108 -17 0.0 0.0 0.00 0.00 0.00 1009.6
20260510044552 -17 0.0 0.0 0.00 0.00 0.00 1009.7
20260510043047 -17 0.0 0.0 0.00 0.00 0.00 1009.9
20260510041540 -17 0.0 0.0 0.00 0.00 0.00 1009.9
20260510040036 -17 0.0 0.0 0.00 0.00 0.00 1009.4
20260510034532 -17 0.0 0.0 0.00 0.00 0.00 1009.7
20260510033105 -17 0.0 0.0 0.00 0.00 0.00 1009.7
20260510031557 -17 0.0 0.0 0.00 0.00 0.00 1009.8
20260510030046 -17 0.0 0.0 0.00 0.00 0.00 1009.8
20260510024541 -17 0.0 0.0 0.00 0.00 0.00 1010.3
20260510023037 -17 0.0 0.0 0.00 0.00 0.00 1010.6
20260510021611 -17 0.0 0.0 0.00 0.00 0.00 1011.1
20260510020026 -17 0.0 0.0 0.00 0.00 0.00 1010.8
20260510014532 -17 0.0 0.0 0.00 0.00 0.00 1011.2
20260510013017 -17 0.0 0.0 0.00 0.00 0.00 1011.5
20260510011516 -17 0.0 0.0 0.00 0.00 0.00 1012.0
20260510010020 -17 0.0 0.0 0.00 0.00 0.00 1012.0
20260510004501 -17 0.0 0.0 0.00 0.00 0.00 1012.2
20260510003105 -17 0.0 0.0 0.00 0.00 0.00 1012.4
20260510001553 -17 0.0 0.0 0.00 0.00 0.00 1012.5
20260510000049 -17 0.0 0.0 0.00 0.00 0.00 1012.2
20260509234540 -17 0.0 0.0 0.00 0.00 0.00 1011.8
20260509233036 -17 0.0 0.0 0.00 0.00 0.00 1011.7
20260509231531 -17 0.0 0.0 0.00 0.00 0.00 1011.2
20260509230035 -17 0.0 0.0 0.00 0.00 0.00 1011.2
20260509224522 13 215 37.0 49.9 0.00 0.00 0.00 1011.2
20260509223017 13 211 38.6 54.7 0.00 0.00 0.00 83 1011.0
20260509221516 13 212 35.4 48.3 0.00 0.00 0.00 82 1011.0
20260509220016 13 210 37.0 45.1 0.00 0.00 0.00 83 1010.8
20260509214512 13 197 40.2 48.3 0.00 0.00 0.00 83 1010.7
20260509213013 13 189 37.0 45.1 0.00 0.00 0.00 83 1010.7
20260509211509 13 209 33.8 45.1 0.00 0.00 0.00 83 1010.7
20260509210008 13 182 38.6 48.3 0.00 0.00 0.00 83 1010.7
20260509204505 13 208 38.6 49.9 0.00 0.00 0.00 83 1010.8
20260509203005 13 205 38.6 48.3 0.00 0.00 0.00 83 1010.7
20260509201510 13 203 35.4 48.3 0.00 0.00 0.00 83 1011.0
20260509200002 13 194 35.4 48.3 0.00 0.00 0.00 82 1011.2
20260509194547 14 211 37.0 46.7 0.00 0.00 0.00 82 1011.1
20260509193034 14 207 38.6 46.7 0.00 0.00 0.00 81 1011.1
20260509191530 14 218 37.0 46.7 0.00 0.00 0.00 81 1011.1
20260509190027 13 221 37.0 45.1 0.00 0.00 0.00 82 1011.0
20260509184527 13 199 35.4 41.8 0.00 0.00 0.00 84 1011.1
20260509183023 13 215 30.6 38.6 0.00 0.00 0.00 84 1011.3
20260509181517 13 205 27.4 37.0 0.00 0.00 0.00 84 1011.7
20260509180017 13 199 22.5 29.0 0.00 0.00 0.00 85 1011.9
20260509174515 13 218 25.7 32.2 0.00 0.00 0.00 85 1012.0
20260509173022 13 227 27.4 35.4 0.00 0.00 0.00 85 1012.2
20260509171512 13 192 22.5 30.6 0.00 0.00 0.00 86 1012.1
20260509170015 13 209 29.0 37.0 0.00 0.00 0.00 85 1012.1
20260509164512 12 201 27.4 32.2 0.00 0.00 0.00 87 1012.0
20260509163011 13 194 33.8 40.2 0.00 0.00 0.00 81 1012.1
20260509161551 13 190 30.6 37.0 0.00 0.00 0.00 82 1012.2
20260509160036 12 193 20.9 30.6 0.00 0.00 0.00 86 1012.2
20260509154502 12 194 22.5 30.6 0.00 0.00 0.00 85 1012.3
20260509153105 12 200 25.7 35.4 0.00 0.00 0.00 85 1012.4
20260509153000 12 192 27.4 35.4 0.00 0.00 0.00 85 1012.5
20260509151555 12 165 24.1 30.6 0.00 0.00 0.00 89 1012.7
20260509150054 11 159 17.7 25.7 0.00 0.00 0.00 90 1012.7
20260509144554 11 167 24.1 30.6 0.00 0.00 0.00 89 1012.7
20260509143054 11 161 24.1 32.2 0.00 0.00 0.00 88 1012.6
20260509141529 11 146 16.1 19.3 0.00 0.00 0.00 88 1012.5
20260509140017 11 148 11.3 17.7 0.00 0.00 0.00 87 1012.7
20260509134549 11 164 16.1 20.9 0.00 0.00 0.00 85 1012.9
20260509133045 11 182 12.9 19.3 0.00 0.00 0.00 87 1013.1
20260509131541 11 164 12.9 16.1 0.00 0.00 0.00 87 1013.2
20260509130040 11 164 17.7 22.5 0.00 0.00 0.00 87 1013.1
20260509124544 11 163 19.3 25.7 0.00 0.00 0.00 87 1013.1
20260509123038 11 153 16.1 22.5 0.00 0.00 0.00 86 1013.0
20260509121538 11 154 9.7 12.9 0.00 0.00 0.00 86 1013.0
20260509120006 11 139 11.3 14.5 0.00 0.00 0.00 87 1013.0
20260509114501 -17 0.0 0.0 0.00 0.00 0.00 1013.1
20260509113055 -17 0.0 0.0 0.00 0.00 0.00 1013.1
20260509111553 -17 0.0 0.0 0.00 0.00 0.00 1013.2
20260509110046 -17 0.0 0.0 0.00 0.00 0.00 1013.5
20260509104542 -17 0.0 0.0 0.00 0.00 0.00 1013.6
20260509103017 -17 0.0 0.0 0.00 0.00 0.00 1013.0
20260509101505 -17 0.0 0.0 0.00 0.00 0.00 1012.9
20260509100059 -17 0.0 0.0 0.00 0.00 0.00 1012.7
20260509094558 -17 0.0 0.0 0.00 0.00 0.00 1012.5
20260509093048 -17 0.0 0.0 0.00 0.00 0.00 1012.5
20260509091550 -17 0.0 0.0 0.00 0.00 0.00 1012.2
20260509090048 -17 0.0 0.0 0.00 0.00 0.00 1012.1
20260509084534 -17 0.0 0.0 0.00 0.00 0.00 1011.7
20260509083028 -17 0.0 0.0 0.00 0.00 0.00 1011.9
20260509081524 -17 0.0 0.0 0.00 0.00 0.00 1011.9
20260509080017 -17 0.0 0.0 0.00 0.00 0.00 1011.9
20260509074513 -17 0.0 0.0 0.00 0.00 0.00 1012.1
20260509073019 -17 0.0 0.0 0.00 0.00 0.00 1012.2
20260509071504 -17 0.0 0.0 0.00 0.00 0.00 1012.3